Location: Roc des P�zouls
(43.9667°N, 3.5500°E)
Time: 12:28:44
(UTC+00:00)

NOSS 3-3 (A) - Pass Details

Date: 14 November 2019
Orbit: 848 x 1364 km, 63.4° (Epoch: 05 December)

Event Time Altitude Azimuth Distance (km) Brightness Sun altitude
Exits shadow 05:10:01 - 221° (SW) 3,425 6.6 -16.0°
Reaches altitude 10° 05:12:20 10° 223° (SW) 2,547 5.9 -15.6°
Maximum altitude 05:18:14 76° 309° (NW) 983 3.9 -14.6°
Drops below altitude 10° 05:24:53 10° 35° (NE) 2,855 6.7 -13.4°
Sets 05:27:41 0° 37° (NE) 3,893 7.5 -12.9°
